Location: Newark
(41.0400°S, 62.7845°W)
Time: 16:21:58
(UTC+00:00)

STARLINK-3101 - Pass Details

Date: 24 October 2021
Orbit: 357 x 362 km, 70.0° (Epoch: 05 December)

Event Time Altitude Azimuth Distance (km) Brightness Sun altitude
Rises 01:18:04 0° 199° (SSW) 2,249 7.8 -25.9°
Reaches altitude 10° 01:20:10 10° 192° (SSW) 1,385 6.4 -26.2°
Enters shadow 01:20:53 15° 187° (S) 1,105 5.8 -26.3°
